TimeEDT,TemperatureF,Dew PointF,Humidity,Sea Level PressureIn,VisibilityMPH,Wind Direction,Wind SpeedMPH,Gust SpeedMPH,PrecipitationIn,Events,Conditions,WindDirDegrees,DateUTC
1:53 AM,57.9,53.1,84,30.12,10.0,Calm,Calm,-,N/A,,Clear,0,2013-08-16 05:53:00
2:53 AM,57.9,53.1,84,30.12,10.0,WSW,3.5,-,N/A,,Clear,250,2013-08-16 06:53:00
3:53 AM,55.9,53.1,90,30.12,10.0,Calm,Calm,-,N/A,,Clear,0,2013-08-16 07:53:00
4:53 AM,55.9,52.0,87,30.13,10.0,Calm,Calm,-,N/A,,Clear,0,2013-08-16 08:53:00
5:53 AM,54.0,51.1,90,30.14,10.0,WSW,3.5,-,N/A,,Partly Cloudy,250,2013-08-16 09:53:00
6:53 AM,55.0,52.0,89,30.14,10.0,Calm,Calm,-,N/A,,Scattered Clouds,0,2013-08-16 10:53:00
7:53 AM,55.9,52.0,87,30.15,10.0,West,4.6,-,N/A,,Scattered Clouds,280,2013-08-16 11:53:00
8:53 AM,60.1,53.1,78,30.16,10.0,Variable,3.5,-,N/A,,Partly Cloudy,0,2013-08-16 12:53:00
9:53 AM,68.0,54.0,61,30.16,10.0,North,4.6,-,N/A,,Partly Cloudy,350,2013-08-16 13:53:00
10:53 AM,70.0,54.0,57,30.18,10.0,Variable,3.5,-,N/A,,Partly Cloudy,0,2013-08-16 14:53:00
11:53 AM,73.0,54.0,51,30.17,10.0,Variable,4.6,-,N/A,,Clear,0,2013-08-16 15:53:00
12:53 PM,75.0,53.1,46,30.17,10.0,North,8.1,-,N/A,,Scattered Clouds,10,2013-08-16 16:53:00
1:53 PM,75.0,51.1,43,30.17,10.0,Calm,Calm,-,N/A,,Mostly Cloudy,0,2013-08-16 17:53:00
2:53 PM,75.9,51.1,42,30.17,10.0,North,5.8,-,N/A,,Mostly Cloudy,350,2013-08-16 18:53:00
3:53 PM,77.0,51.1,40,30.16,10.0,North,3.5,-,N/A,,Scattered Clouds,360,2013-08-16 19:53:00
4:53 PM,75.9,51.1,42,30.16,10.0,Calm,Calm,-,N/A,,Mostly Cloudy,0,2013-08-16 20:53:00
5:53 PM,77.0,50.0,39,30.16,10.0,Calm,Calm,-,N/A,,Scattered Clouds,0,2013-08-16 21:53:00
6:53 PM,75.9,50.0,40,30.17,10.0,NNE,4.6,-,N/A,,Scattered Clouds,30,2013-08-16 22:53:00
7:53 PM,73.9,52.0,46,30.17,10.0,North,3.5,-,N/A,,Partly Cloudy,360,2013-08-16 23:53:00
8:53 PM,68.0,55.0,63,30.18,10.0,ENE,3.5,-,N/A,,Partly Cloudy,60,2013-08-17 00:53:00
9:53 PM,68.0,55.0,63,30.19,10.0,East,3.5,-,N/A,,Scattered Clouds,90,2013-08-17 01:53:00
10:53 PM,64.0,55.0,73,30.21,10.0,Calm,Calm,-,N/A,,Partly Cloudy,0,2013-08-17 02:53:00
11:53 PM,61.0,55.0,81,30.21,10.0,Calm,Calm,-,N/A,,Partly Cloudy,0,2013-08-17 03:53:00